Regional Weather Roundup
Issued by NWS Upton, NY

Current Version | Previous Version | Graphics & Text | Print | Product List | Glossary Off
Versions: 1 2 3 4 5 6 7 8 9 10 11 12 13 14 15 16 17 18 19 20 21 22 23 24 25 26 27 28

000
ASUS41 KOKX 181205
RWROKX

REGIONAL WEATHER ROUNDUP
NATIONAL WEATHER SERVICE NEW YORK NY
800 AM EDT FRI APR 18 2014

NOTE: "FAIR" INDICATES FEW OR NO CLOUDS BELOW 12,000 FEET WITH NO
SIGNIFICANT WEATHER AND/OR OBSTRUCTIONS TO VISIBILITY.

NYZ071-072-176-178-NJZ106-104-181300-
NEW YORK CITY METRO AREA


CITY           SKY/WX    TMP DP  RH WIND       PRES   REMARKS
CENTRAL PARK   PTSUNNY   37  27  67 N5        30.57R WCI  33
LAGUARDIA APRT CLOUDY    36  26  67 NE9       30.56R WCI  29
KENNEDY INTL   PTSUNNY   37  25  61 N7        30.57R WCI  32
NEWARK/LIBERTY PTSUNNY   37  28  70 N7        30.56R WCI  32
TETERBORO      MOSUNNY   38  26  62 NE3       30.55R
$$

NYZ177-179-078>081-181300-
LONG ISLAND NEW YORK

CITY           SKY/WX    TMP DP  RH WIND       PRES   REMARKS
FARMINGDALE    CLOUDY    35  27  72 NE5       30.55R WCI  31
ISLIP          CLOUDY    37  28  70 N9        30.53R WCI  30
SHIRLEY        CLOUDY    37  30  75 N5        30.55R WCI  33
WESTHAMPTON    CLOUDY    38  29  70 E8        30.54R WCI  32
MONTAUK POINT    N/A     39  31  72 NE7       30.52S WCI  34
$$

NYZ052-065-067-181300-
HUDSON VALLEY

CITY           SKY/WX    TMP DP  RH WIND       PRES   REMARKS
WHITE PLAINS   CLOUDY    33  25  72 E5        30.53R WCI  29
NEWBURGH       MOSUNNY   34  27  75 SE6       30.55R WCI  29
MONTGOMERY     CLOUDY    34  28  79 CALM      30.54R
POUGHKEEPSIE   MOSUNNY   35  25  66 SE8       30.55R WCI  29
ALBANY         MOSUNNY   34  21  59 S9        30.53R WCI  27
$$

NJZ001-105-106-008-010-013-015-019>022-104-181300-
NEW JERSEY

CITY           SKY/WX    TMP DP  RH WIND       PRES   REMARKS
NEWARK/LIBERTY PTSUNNY   37  28  70 N7        30.56R WCI  32
TETERBORO      MOSUNNY   38  26  62 NE3       30.55R
CALDWELL       MOSUNNY   35  26  69 E5        30.56R WCI  31
MORRISTOWN     PTSUNNY   34  32  93 E5        30.56R WCI  30
SOMERVILLE     CLOUDY    37  30  75 CALM      30.54R
LINDEN         CLOUDY    39  28  65 E6        30.58R WCI  35
SUSSEX         CLOUDY    35  30  82 CALM      30.53R
ANDOVER          N/A     34  29  82 S5        30.53R WCI  30
TRENTON        CLOUDY    38  27  64 E7        30.54R WCI  33
MILLVILLE      CLOUDY    39  32  76 E8        30.53S WCI  33
ATLANTIC CITY  CLOUDY    40  32  73 NE10      30.52S WCI  33
WRIGHTSTOWN    CLOUDY    38  30  71 NE8       30.53R WCI  32
TOMS RIVER     CLOUDY    39  30  70 NE3       30.55R
BELMAR         CLOUDY    37  27  65 N5        30.55R WCI  34
$$

PAZ047>061-062-071-181300-
EASTERN PENNSYLVANIA

CITY           SKY/WX    TMP DP  RH WIND       PRES   REMARKS
PHILADELPHIA   CLOUDY    41  28  60 E7        30.55R
ALLENTOWN      CLOUDY    38  28  67 E7        30.53R WCI  33
SCRANTON       MOSUNNY   35  27  72 VRB6      30.48R WCI  30
$$

CTZ002-004>006-009-010-012-RIZ004-006-007-MAZ004-011-015-181300-
SOUTHERN NEW ENGLAND
 IN CT

CITY           SKY/WX    TMP DP  RH WIND       PRES   REMARKS
BRADLEY INTL   PTSUNNY   33  26  75 N7        30.55R WCI  27
HARTFORD       MOSUNNY   34  26  72 N8        30.56R WCI  27
DANBURY        CLOUDY    31  24  75 NE6       30.56R WCI  25
WTRBRY/OXFORD  MOSUNNY   30  23  74 NE7       30.55R WCI  23
BRIDGEPORT     CLOUDY    36  27  69 NE8       30.56R WCI  30
MERIDEN        MOSUNNY   34  26  72 N7        30.56R WCI  28
NEW HAVEN      PTSUNNY   35  27  72 N8        30.56R WCI  29
CHESTER        FAIR      34  28  80 NE8       30.53R WCI  27
GROTON         MOSUNNY   35  29  78 N9        30.52F WCI  28
WILLIMANTIC    CLOUDY    34  28  79 N6        30.54S WCI  29

 IN RI

CITY           SKY/WX    TMP DP  RH WIND       PRES   REMARKS
PROVIDENCE     CLOUDY    36  28  73 NE8       30.53S WCI  30
BLOCK ISLAND   CLOUDY    37  30  75 NE9       30.49S WCI  31
WESTERLY       CLOUDY    35  28  75 NE7       30.52S WCI  29

 IN MA

CITY           SKY/WX    TMP DP  RH WIND       PRES   REMARKS
BOSTON         PTSUNNY   39  29  67 NE17      30.56R WCI  30
WORCESTER      CLOUDY    30  25  81 NE9       30.49F WCI  22
WESTFIELD      PTSUNNY   33  24  69 N9        30.55R WCI  25
PROVINCETOWN   CLOUDY    39  30  70 MISG      30.53R
NANTUCKET      CLOUDY    41  34  76 E15G21    30.48S
$$

ANZ330-335-338-340-345-350-353-355-181300-
COASTAL MARINE OBSERVATIONS


STATION/POSITION TIME  SKY/WX   TEMP    WIND        PRES    VSBY  WAVE
                                AIR SEA DIR/SP/G                  HT/PER
                 (UTC)          (F)     (DEG/KT/KT) (MB)    (MI)  (FT/S)
NY HARB ENTRANCE 1200            38 42  310/ 10/ 12 1034.1
4S FIRE IS       1100               44                N/A           6/ 9
23SW MTP         1200            38 42   50/ 16/ 17 1032.1          6/ 8
HUDSON CANYON    1100            40 44   50/ 17/ 21 1030.7          8/ 8
EXECUTION ROCKS  1200            36 42   50/ 10/ 12   N/A
WESTERN LI SOUND 1200            35      40/ 10/ 14   N/A           2/ 4
CENTRAL LI SOUND 1100            34 42   30/ 12/ 16   N/A           2/ 4
EASTERN LI SOUND NOT AVBL
ROBBINS REEF     1200            36      60/  7/ 10   N/A
$$


>>>>>>>>>>>>>>>>>>>>>>>>>>>> KEY <<<<<<<<<<<<<<<<<<<<<<<<<<<
>                                                          <
>     SKY/WX - SKY CONDITION/PRESENT WEATHER               <
>     TMP    - TEMPERATURE IN FAHRENHEIT                   <
>     DP     - DEWPOINT IN FAHRENHEIT                      <
>     RH     - RELATIVE HUMIDITY IN PERCENT                <
>     WIND   - DIRECTION AND SPEED IN MPH                  <
>     PRES   - MEAN SEA LEVEL PRESSURE IN INCHES OF HG     <
>     WCI    - WIND CHILL INDEX                            <
>     VSB    - VISIBILITY IN MILES                         <
>     HX     - HEAT INDEX                                  <
>     TC     - TEMPERATURE IN CELSIUS                      <
>     VRB    - VARIABLE WIND DIRECTION                     <
>                                                          <
>>>>>>>>>>>>>>>>>>>>>>>>>>>> KEY <<<<<<<<<<<<<<<<<<<<<<<<<<<





USA.gov is the U.S. government's official web portal to all federal, state and local government web resources and services.